Location: Sungai Anya
(2.6167°N, 114.0500°E)
Time: 19:21:39
(UTC+00:00)

Hubble Space Telescope - Pass Details

Date: 19 October 2021
Orbit: 534 x 538 km, 28.5° (Epoch: 07 December)

Event Time Altitude Azimuth Distance (km) Brightness Sun altitude
Rises 10:37:44 0° 210° (SSW) 2,665 4.9 -7.6°
Reaches altitude 10° 10:40:55 10° 184° (S) 1,774 3.6 -8.4°
Maximum altitude 10:43:08 14° 151° (SSE) 1,529 2.9 -8.9°
Drops below altitude 10° 10:45:20 10° 118° (ESE) 1,773 2.9 -9.5°
Enters shadow 10:45:51 - 113° (ESE) 1,888 3.0 -9.6°
